Starlink 35121

operational
NORAD ID: 65737 Int'l Des: 2025-216 Owner: SPXS Country: US Constellation: starlink
NOTLE

关于 Starlink 35121

正在加载描述...

实时位置

正在加载3D地球...

即将过境

高度历史

Altitude vs Time

uPlot chart will show altitude changes over time

两行轨道根数

1 65737U 25216D 25340.89819218 .00042067 00000-0 14245-2 0 9991
2 65737 53.1622 44.1244 0001933 90.8163 269.3059 15.30197933 12335
Epoch: Dec 6, 2025 • Age: 31 hours

当前状态

高度 474.8 km
速度 7.63 km/s
星下点 7.34°N, 74.3°E
发射日期 Sep 25, 2025
运行时间 0.1 years
类型 internet

技术详情

分类 Payload
质量 575.00 kg
干质量 530.00 kg
总质量 575.00 kg
长度 0.30 m
直径 4.10 m
跨度 29.00 m
形状 Box + pan
制造商 SPXS
平台类型 Starlink V2MO
阶段状态 In Orbit
所有者/国家 SPXS/US

大型星座

Loading constellations...